EUTELSAT 21B

Last updated on Aug. 4, 2020, 5:33 a.m. UTC

1 38992U 12062B   20216.90044241  .00000112  00000-0  00000-0 0  9991
2 38992   0.0653  15.6928 0002196 123.3284 159.6341  1.00270253 28345
UTC
Height (km)
Latitude
Longitude
Inclination
Orbital Period
UTC large
Height (km)
Speed (km/s)
/
Latitude / Longitude
Inclination (degrees)
Orbital Period (minutes)
Azimuth
Elevation
Range (km)
Doppler Factor
iOS Compass Heading
iOS Angle

Next 30 passes for location: Hong Kong

Rise time Rise Azimuth (degrees) Set time Set Azimuth (degrees) Duration Max altitude (degrees)

No matching passes for this satellites